Regional Weather Roundup
Issued by NWS

Home | Current Version | Previous Version | Text Only | Print | Product List | Glossary On
Versions: 1 2 3 4 5 6 7 8 9 10 11 12 13 14 15 16 17 18 19 20 21 22 23 24 25 26 27 28 29 30 31 32 33 34 35 36 37 38 39 40 41 42 43 44 45 46 47 48 49 50
000
ASUS43 KMKX 241811
RWRWI

WISCONSIN REGIONAL WEATHER ROUNDUP
NATIONAL WEATHER SERVICE MILWAUKEE/SULLIVAN WI
1200 PM CST FRI FEB 24 2017

NOTE: "FAIR" INDICATES FEW OR NO CLOUDS BELOW 12,000 FEET WITH NO
SIGNIFICANT WEATHER AND/OR OBSTRUCTIONS TO VISIBILITY.

WIZ001-002-006>008-014>016-023>028-241900-
NORTHWEST WISCONSIN

CITY           SKY/WX    TMP DP  RH WIND       PRES   REMARKS
SUPERIOR ARPT  CLOUDY    21  12  67 N8        29.96S WCI  12
6HR MIN TEMP:  20; 6HR MAX TEMP:  22;

ASHLAND        LGT SNOW  20  15  81 N15G25    29.91F WCI   6
6HR MIN TEMP:  20; 6HR MAX TEMP:  25; 6HR PCP: TRACE;

HAYWARD        CLOUDY    22  14  71 N16G29    29.85F WCI   8
6HR MIN TEMP:  22; 6HR MAX TEMP:  25; 6HR PCP: TRACE;

SIREN          CLOUDY    25  15  66 NE16G22   29.87F WCI  12
6HR MIN TEMP:  24; 6HR MAX TEMP:  25;

CUMBERLAND     LGT SNOW  23  18  80 N16       29.81S WCI  10
RICE LAKE      LGT SNOW  24  19  82 N17G24    29.82F WCI  11
6HR MIN TEMP:  24; 6HR MAX TEMP:  28;

CHETEK         LGT SNOW  25  21  83 N8        29.80F WCI  16
6HR MIN TEMP:  25; 6HR MAX TEMP:  27; 6HR PCP:  0.01;

LADYSMITH      LGT SNOW  26  19  74 N18G25    29.79S WCI  12
6HR MIN TEMP:  26; 6HR MAX TEMP:  27; 6HR PCP:  0.02;

EAU CLAIRE     LGT SNOW  26  21  81 N13G20    29.76S WCI  15
6HR MIN TEMP:  26; 6HR MAX TEMP:  28; 6HR PCP:  0.10;

MENOMONIE      FLURRIES  28  20  71 N16G24    29.78F WCI  16
6HR MIN TEMP:  28; 6HR MAX TEMP:  29; 6HR PCP:  0.01;

NEW RICHMOND   LGT SNOW  25  19  78 N16       29.82F WCI  13
6HR MIN TEMP:  25; 6HR MAX TEMP:  28;

OSCEOLA        CLOUDY    27  18  70 N13       29.87F WCI  16
6HR MIN TEMP:  26; 6HR MAX TEMP:  27;

$$

WIZ003>005-009-010-017-018-241900-
NORTH CENTRAL WISCONSIN

CITY           SKY/WX    TMP DP  RH WIND       PRES   REMARKS
MANITOWISH WTR LGT SNOW  20  16  84 N12G21    29.77F WCI   8
6HR MIN TEMP:  19; 6HR MAX TEMP:  22;

ARBOR VITAE    CLOUDY    22  17  83 N14G20      N/A  HAZE    WCI   9
6HR MIN TEMP:  22; 6HR MAX TEMP:  24; 6HR PCP:  0.02;

WOODRUFF       CLOUDY    22  17  83 N14G20      N/A  HAZE    WCI   9
6HR MIN TEMP:  22; 6HR MAX TEMP:  24; 6HR PCP:  0.02;

RHINELANDER    LGT SNOW  23  18  81 N12G20    29.73S WCI  12
6HR MIN TEMP:  22; 6HR MAX TEMP:  24; 6HR PCP:  0.14;

EAGLE RIVER    LGT SNOW  21  17  83 NE12      29.74S WCI   9
6HR MIN TEMP:  21; 6HR MAX TEMP:  24;

LAND O LAKES   LGT SNOW  20  17  87 NE9G16    29.78S WCI  10
6HR MIN TEMP:  20; 6HR MAX TEMP:  23;

PHILLIPS       LGT SNOW  22  18  83 N17       29.75F WCI   8
6HR MIN TEMP:  21; 6HR MAX TEMP:  25; 6HR PCP:  0.03;

TOMAHAWK       CLOUDY    23  19  84 N10G18    29.73F FOG     WCI  12
6HR MIN TEMP:  22; 6HR MAX TEMP:  26;

MEDFORD        CLOUDY    23  19  83 NE21G26   29.69F FOG     WCI   8
6HR MIN TEMP:  23; 6HR MAX TEMP:  26; 6HR PCP:  0.01;

MERRILL        NOT AVBL
$$

WIZ029-030-035-036-043>047-241900-
CENTRAL WISCONSIN

CITY           SKY/WX    TMP DP  RH WIND       PRES   REMARKS
WAUSAU         LGT SNOW  24  20  84 N10G21    29.65F FOG     WCI  14
6HR MIN TEMP:  24; 6HR MAX TEMP:  27; 6HR PCP:  0.11;

MOSINEE        SNOW      25  23  93 N10G25    29.67F VSB 1/2 WCI  15
MARSHFIELD     CLOUDY    25  20  81 N13G25    29.67F HAZE    WCI  14
6HR MIN TEMP:  25; 6HR MAX TEMP:  27;

STEVENS POINT  MIX PCPN  25  22  89 NE16G26   29.66F WCI  12
6HR MIN TEMP:  24; 6HR MAX TEMP:  26; 6HR PCP:  0.03;

WAUPACA        CLOUDY    30  26  84 N12G22    29.65F HAZE    WCI  20
6HR MIN TEMP:  30; 6HR MAX TEMP:  31; 6HR PCP:  0.03;

WAUTOMA        FRZ RAIN  28  25  88 NE18G28   29.62F FOG     WCI  15
6HR MIN TEMP:  28; 6HR MAX TEMP:  29; 6HR PCP:  0.02;

WISC RAPIDS    MIX PCPN  27  23  85 NE13G21   29.67R FOG     WCI  16
6HR MIN TEMP:  27; 6HR MAX TEMP:  29; 6HR PCP:  0.05;

CAMP DOUGLAS   FRZ RAIN  28  25  86 N9        29.66S FOG     WCI  20
                                      6HR PCP:  0.09;

$$

WIZ011>013-019>022-031-037>040-048>050-241900-
NORTHEAST WISCONSIN

CITY           SKY/WX    TMP DP  RH WIND       PRES   REMARKS
ANTIGO         SNOW      22  19  90 N16G26    29.67F VSB 1/2 WCI   8
6HR MIN TEMP:  22; 6HR MAX TEMP:  26; 6HR PCP:  0.08;

SHAWANO        CLOUDY    29  25  84 NE18G25   29.67F HAZE    WCI  16
6HR MIN TEMP:  29; 6HR MAX TEMP:  31; 6HR PCP:  0.06;

OCONTO         CLOUDY    27  24  89 N14G21    29.67S WCI  16
6HR MIN TEMP:  27; 6HR MAX TEMP:  30; 6HR PCP:  0.06;

STURGEON BAY   MIX PCPN  27  25  92 N17       29.64F FOG     WCI  14
6HR MIN TEMP:  27; 6HR MAX TEMP:  31; 6HR PCP:  0.03;

GREEN BAY      LGT SNOW  29  27  92 N22G32    29.64F FOG     WCI  15
6HR MIN TEMP:  28; 6HR MAX TEMP:  31; 6HR PCP:  0.05;

MANITOWOC      MIX PCPN  32  29  88 NE17G23   29.59F FOG     WCI  21
6HR MIN TEMP:  32; 6HR MAX TEMP:  32; 6HR PCP:  0.11;

APPLETON       CLOUDY    27  23  86 NE21G30   29.60F FOG     WCI  13
CLINTONVILLE   MIX PCPN  28  25  86 NE20G25   29.66F WCI  15
OSHKOSH        CLOUDY    28  25  88 NE26G38   29.60F FOG     WCI  13
6HR MIN TEMP:  28; 6HR MAX TEMP:  31; 6HR PCP:  0.07;

$$

WIZ032>034-041-042-053>061-241900-
SOUTHWEST WISCONSIN

CITY           SKY/WX    TMP DP  RH WIND       PRES   REMARKS
LA CROSSE      LGT SNOW  32  28  85 N10       29.68S VSB 1   WCI  24
6HR MIN TEMP:  31; 6HR MAX TEMP:  32; 6HR PCP:  0.05;

SPARTA         CLOUDY    29  26  87 NE13G23   29.68F FOG     WCI  19
6HR MIN TEMP:  29; 6HR MAX TEMP:  30;

VIROQUA        CLOUDY    29  27  90 NE20G26   29.60F WCI  17
6HR MIN TEMP:  29; 6HR MAX TEMP:  30;

BOSCOBEL       CLOUDY    32  28  85 NE9G17    29.61S FOG     WCI  24
6HR MIN TEMP:  32; 6HR MAX TEMP:  32; 6HR PCP: TRACE;

PRAIRIE DU CHI CLOUDY    31  30  94 N8        29.61F FOG     WCI  24
6HR MIN TEMP:  31; 6HR MAX TEMP:  32; 6HR PCP:  0.01;

PLATTEVILLE    CLOUDY    32  32 100 N10       29.55S WCI  24
$$

WIZ056-057-062-063-064-067-068-241900-
SOUTH CENTRAL WISCONSIN

CITY           SKY/WX    TMP DP  RH WIND       PRES   REMARKS
REEDSBURG      CLOUDY    29  28  97 NE12G17   29.61S FOG     WCI  19
6HR MIN TEMP:  29; 6HR MAX TEMP:  29; 6HR PCP:  0.01;

BARABOO/DELLS  CLOUDY    28  27  93 NE13G20   29.60S FOG     WCI  18
6HR MIN TEMP:  28; 6HR MAX TEMP:  29;

LONE ROCK      CLOUDY    31  26  82 NE20G33   29.60S HAZE    WCI  19
6HR MIN TEMP:  31; 6HR MAX TEMP:  32; 6HR PCP:  0.02;

MINERAL POINT    N/A    N/A N/A N/A N6        29.54R
MADISON        CLOUDY    31  29  92 NE17G24   29.55F FOG     WCI  19
6HR MIN TEMP:  31; 6HR MAX TEMP:  32; 6HR PCP:  0.05;

MIDDLETON      CLOUDY    32  32 100 NE10      29.56S WCI  24
6HR MIN TEMP:  32; 6HR MAX TEMP:  33;

WATERTOWN      CLOUDY    32  32 100 NE10      29.53S FOG     WCI  24
6HR MIN TEMP:  32; 6HR MAX TEMP:  33; 6HR PCP:  0.02;

MONROE         MIX PCPN  32  32 100 NE21      29.50S WCI  20
JANESVILLE     NOT AVBL
$$

WIZ051-052-058>065-066-070>072-241900-
SOUTHEAST WISCONSIN

CITY           SKY/WX    TMP DP  RH WIND       PRES   REMARKS
MILWAUKEE      LGT RAIN  36  33  89 N20G26    29.51S FOG     WCI  25
6HR MIN TEMP:  35; 6HR MAX TEMP:  36; 6HR PCP:  0.02;

WAUKESHA       CLOUDY    30  30 100 NE16G23   29.57S FOG     WCI  19
MILWAUKEE/TIMM LGT SNOW  34  30  86 NE17G29   29.53S WCI  23
RACINE         LGT RAIN  36  34  92 N15G26    29.50F FOG     WCI  27
6HR MIN TEMP:  36; 6HR MAX TEMP:  37; 6HR PCP: TRACE;

KENOSHA        CLOUDY    37  35  92 NE10      29.48F FOG     WCI  30
6HR MIN TEMP:  36; 6HR MAX TEMP:  37; 6HR PCP:  0.03;

FOND DU LAC    LGT SNOW  30  26  85 N25       29.58F FOG     WCI  16
6HR MIN TEMP:  30; 6HR MAX TEMP:  33; 6HR PCP:  0.06;

SHEBOYGAN      MIX PCPN  32  31  96 NE23G30   29.55F FOG     WCI  19
6HR MIN TEMP:  32; 6HR MAX TEMP:  32; 6HR PCP:  0.03;

WEST BEND      CLOUDY    32  32 100 NE8       29.53S FOG     WCI  25
JUNEAU         LGT SNOW  31  30  94 N10       29.55F WCI  22
6HR MIN TEMP:  31; 6HR MAX TEMP:  32; 6HR PCP:  0.12;

$$

LSZ147-162-241900-
LAKE SUPERIOR

STATION/POSITION TIME  TEMP    WIND        PRES    WAVE
                       AIR SEA DIR/SP/G            HT/PER
                 (UTC) (F)     (DEG/KT/KT) (MB)    (FT/S)
DEVILS ISLAND    1800   17      30/ 19/ 22 1015.8F
PORT WING        1740   21      40/ 20/ 23 1014.2F
SAXON HARBOR     1730   24      20/ 23/ 26 1012.5S
$$

LMZ867-665-643>646-241900-
LAKE MICHIGAN

STATION/POSITION TIME  TEMP    WIND        PRES    WAVE
                       AIR SEA DIR/SP/G            HT/PER
                 (UTC) (F)     (DEG/KT/KT) (MB)    (FT/S)
CHAMBERS ISLAND  1740   27      10/ 26/ 30 1004.4F
NORTHPORT PIER   1740   27      20/ 15/ 23 1005.4F
SISTER BAY       1735   28      10/ 19/ 32   N/A
KEWAUNEE LAKESHO 1748   31



USA.gov is the U.S. government's official web portal to all federal, state and local government web resources and services.